Photometre #346[Polarized_P] OHP_OBSERVATOIRE AOT

File : 20190924_346.hum

24/09/2019,06:16:05,TEMP=12.0,BA=5.64,STAT.A=Abs.,ExtBa=13.68
24/09/2019,06:19:40,TEMP=12.6,BA=5.64,STAT.A=Abs.,ExtBa=13.49
24/09/2019,06:23:51,TEMP=13.1,BA=5.60,STAT.A=Abs.,ExtBa=13.39
24/09/2019,06:28:50,TEMP=13.3,BA=5.60,STAT.A=Abs.,ExtBa=13.53
24/09/2019,06:34:50,TEMP=13.6,BA=5.60,STAT.A=Abs.,ExtBa=13.64
24/09/2019,06:42:14,TEMP=14.7,BA=5.64,STAT.A=Abs.,ExtBa=13.70
24/09/2019,06:51:36,TEMP=15.9,BA=5.64,STAT.B=Abs.,ExtBa=13.72
24/09/2019,06:58:11,TEMP=17.1,BA=5.64,STAT.A=Abs.,ExtBa=13.00
24/09/2019,07:01:07,TEMP=17.6,BA=5.64,STAT.A=Abs.,ExtBa=13.14
24/09/2019,07:06:47,TEMP=18.2,BA=5.64,STAT.A=Abs.,ExtBa=13.40
24/09/2019,07:13:14,TEMP=18.8,BA=5.64,STAT.A=Abs.,ExtBa=13.58
24/09/2019,07:20:40,TEMP=18.8,BA=5.64,STAT.C=Abs.,ExtBa=13.68
24/09/2019,07:34:07,TEMP=20.8,BA=5.52,STAT.A=Abs.,ExtBa=12.95
24/09/2019,07:39:31,TEMP=20.6,BA=5.52,STAT.A=Abs.,ExtBa=13.29
24/09/2019,07:51:49,TEMP=22.1,BA=5.64,STAT.A=Abs.,ExtBa=13.79
24/09/2019,08:07:00,TEMP=21.8,BA=5.64,STAT.A=Abs.,ExtBa=13.94
24/09/2019,08:26:22,TEMP=20.4,BA=5.64,STAT.B=Abs.,ExtBa=13.94
24/09/2019,08:29:54,TEMP=20.4,BA=5.64,STAT.F
24/09/2019,08:44:52,TEMP=19.8,BA=5.64,STAT.D=Abs.,ExtBa=13.89
24/09/2019,08:59:52,TEMP=20.6,BA=5.64,STAT.D=Abs.,ExtBa=13.87
24/09/2019,09:14:52,TEMP=22.8,BA=5.64,STAT.D=Abs.,ExtBa=13.85
24/09/2019,09:29:54,TEMP=24.0,BA=5.64,STAT.F
24/09/2019,09:44:52,TEMP=24.1,BA=5.64,STAT.D=Abs.,ExtBa=13.73
24/09/2019,09:59:52,TEMP=23.3,BA=5.64,STAT.D=Abs.,ExtBa=13.87
24/09/2019,10:14:52,TEMP=22.2,BA=5.64,STAT.D=Abs.,ExtBa=13.81
24/09/2019,10:29:54,TEMP=21.6,BA=5.64,STAT.F
24/09/2019,10:44:52,TEMP=22.1,BA=5.64,STAT.D=Abs.,ExtBa=13.79
24/09/2019,10:59:52,TEMP=22.6,BA=5.64,STAT.D=Abs.,ExtBa=13.78
24/09/2019,11:14:52,TEMP=23.0,BA=5.64,STAT.D=Abs.,ExtBa=13.77
24/09/2019,11:29:54,TEMP=22.7,BA=5.64,STAT.F
24/09/2019,11:44:52,TEMP=22.6,BA=5.64,STAT.D=Abs.,ExtBa=13.76
24/09/2019,11:59:52,TEMP=23.3,BA=5.64,STAT.D=Abs.,ExtBa=13.76
24/09/2019,12:14:52,TEMP=22.8,BA=5.64,STAT.D=Abs.,ExtBa=13.75
24/09/2019,12:29:54,TEMP=22.6,BA=5.64,STAT.F
24/09/2019,12:44:52,TEMP=21.9,BA=5.64,STAT.D=Abs.,ExtBa=13.73
24/09/2019,12:59:52,TEMP=22.3,BA=5.64,STAT.D=Abs.,ExtBa=13.73
24/09/2019,13:14:52,TEMP=25.9,BA=5.64,STAT.D=Abs.,ExtBa=13.73
24/09/2019,13:29:53,TEMP=24.8,BA=5.64,STAT.F
24/09/2019,13:44:52,TEMP=23.7,BA=5.64,STAT.D=Abs.,ExtBa=13.73
24/09/2019,13:59:52,TEMP=22.9,BA=5.64,STAT.D=Abs.,ExtBa=13.72
24/09/2019,14:14:52,TEMP=22.8,BA=5.64,STAT.D=Abs.,ExtBa=13.72
24/09/2019,14:29:53,TEMP=23.0,BA=5.64,STAT.F
24/09/2019,14:33:25,TEMP=22.9,BA=5.52,STAT.B=Abs.,ExtBa=13.73
24/09/2019,14:52:48,TEMP=22.2,BA=5.64,STAT.A=Abs.,ExtBa=13.73
24/09/2019,15:07:59,TEMP=21.8,BA=5.64,STAT.A=Abs.,ExtBa=13.73
24/09/2019,15:20:17,TEMP=22.5,BA=5.64,STAT.A=Abs.,ExtBa=13.73
24/09/2019,15:30:29,TEMP=21.6,BA=5.64,STAT.A=Abs.,ExtBa=13.73
24/09/2019,15:39:08,TEMP=21.1,BA=5.64,STAT.C=Abs.,ExtBa=13.72
24/09/2019,15:46:34,TEMP=20.9,BA=5.52,STAT.A=Abs.,ExtBa=13.72
24/09/2019,15:53:01,TEMP=20.6,BA=5.64,STAT.A=Abs.,ExtBa=13.71
24/09/2019,15:58:41,TEMP=20.3,BA=5.64,STAT.A=Abs.,ExtBa=13.72
24/09/2019,16:03:43,TEMP=20.2,BA=5.52,STAT.A=Abs.,ExtBa=13.72
24/09/2019,16:08:12,TEMP=20.2,BA=5.52,STAT.B=Abs.,ExtBa=13.71
24/09/2019,16:17:34,TEMP=20.0,BA=5.60,STAT.A=Abs.,ExtBa=13.71
24/09/2019,16:24:58,TEMP=20.0,BA=5.64,STAT.A=Abs.,ExtBa=13.71
24/09/2019,16:30:58,TEMP=19.9,BA=5.64,STAT.A=Abs.,ExtBa=13.70
24/09/2019,16:36:25,TEMP=19.8,BA=5.64,STAT.A=Abs.,ExtBa=13.71
24/09/2019,16:40:07,TEMP=19.9,BA=5.56,STAT.A=Abs.,ExtBa=13.71
24/09/2019,16:43:41,TEMP=19.9,BA=5.56,STAT.A=Abs.,ExtBa=13.70